Weather Roundup
Issued by NWS Springfield, MO

Home | Current Version | Previous Version | Text Only | Print | Product List | Glossary On
Versions: 1 2 3 4 5 6 7 8 9 10 11 12 13 14 15 16 17 18 19 20 21 22 23 24 25 26 27 28 29 30 31 32 33 34 35 36 37 38 39 40 41 42 43 44 45 46 47 48 49 50
000
NZUS99 KSGF 170507
HRRSGF

HOURLY WEATHER
NATIONAL WEATHER SERVICE SPRINGFIELD MO
1100 PM CST SAT DEC 16 2017

......SGF CWA......

CITY           SKY/WX    TMP DP  RH WIND       PRES   REMARKS
SPRINGFIELD    CLOUDY    49  27  42 S10       30.03S
JOPLIN         CLOUDY    51  27  39 S12       30.00F
WEST PLAINS    MOCLDY    46  28  49 S7        30.08F
ROLLA          CLOUDY    45  28  51 S15       30.06R
OSAGE BEACH    CLOUDY    45  26  47 S7        30.06R
BRANSON        CLOUDY    46  27  46 CALM      30.05S

......SURROUNDING SGF CWA......

CITY           SKY/WX    TMP DP  RH WIND       PRES   REMARKS
CHANUTE        CLOUDY    50  28  42 SE8       29.97S
PARSONS        CLOUDY    53  29  39 S14G20    29.99R
COFFEYVILLE    CLOUDY    53  30  41 S22G28    30.00R
EMPORIA        CLOUDY    48  27  44 SE12      29.92F
GROVE OK       DRIZZLE   46  39  76 S9        30.04R
ROGERS AR      CLOUDY    46  34  62 S9        30.04R
SILOAM SPRINGS RAIN      43  38  82 S8        30.04S
HARRISON AR    LGT RAIN  46  32  58 S6        30.05R
NEAR YELLVILLE CLOUDY    49  28  44 CALM      30.06F

......KANSAS AND MISSOURI......

CITY           SKY/WX    TMP DP  RH WIND       PRES   REMARKS
KANSAS CTY INT CLOUDY    47  27  45 S12       29.96S
DOWNTOWN KC    CLOUDY    50  26  39 S7        29.97S
COLUMBIA       CLOUDY    45  26  47 S9        30.03R
SEDALIA        MOCLDY    50  28  42 S9        30.02S
ST JOSEPH      CLOUDY    34  26  72 CALM      29.97R
ST LOUIS       CLOUDY    47  29  49 S6        30.06R
SPIRIT OF STL  CLOUDY    42  28  57 E3        30.05S
KIRKSVILLE     CLOUDY    42  30  62 SW5       30.00R
WICHITA        CLOUDY    53  28  38 S18       29.94R
TOPEKA         CLOUDY    42  29  59 E5        29.94F
OLATHE         CLOUDY    44  27  51 S8        29.97S

......TENNESSEE......

CITY           SKY/WX    TMP DP  RH WIND       PRES   REMARKS
MEMPHIS        MOCLDY    47  31  53 SE5       30.17F
NASHVILLE      CLOUDY    43  30  60 S3        30.24R

......ARKANSAS.......

CITY           SKY/WX    TMP DP  RH WIND       PRES   REMARKS
FAYETTEVILLE   LGT RAIN  44  37  76 S9        30.05R
FT SMITH       LGT RAIN  45  43  93 SE3       30.10R
LITTLE ROCK    LGT RAIN  45  42  89 S5        30.13R

......OKLAHOMA.......

CITY           SKY/WX    TMP DP  RH WIND       PRES   REMARKS
TULSA          RAIN      46  43  89 S12       30.03R FOG
PONCA CITY     CLOUDY    46  40  79 S17G25    29.96R
MCALESTER      RAIN      45  42  89 S9G18     30.07R
OKLAHOMA CITY  CLOUDY    42  39  89 S20       29.99R

......IOWA............

CITY           SKY/WX    TMP DP  RH WIND       PRES   REMARKS
DES MOINES     CLOUDY    35  26  69 NE6       29.98R WCI  30
QUAD CITIES    CLOUDY    25  21  85 E5        30.01S WCI  19

......ILLINOIS........

CITY           SKY/WX    TMP DP  RH WIND       PRES   REMARKS
QUINCY         CLOUDY    43  26  51 S8        30.01R
CHICAGO        CLOUDY    32  30  92 N7        30.06S WCI  26




USA.gov is the U.S. government's official web portal to all federal, state and local government web resources and services.